Regional Weather Roundup
Issued by NWS Sioux Falls, SD

Home | Current Version | Previous Version | Graphics & Text | Print | Product List | Glossary On
Versions: 1 2 3 4 5 6 7 8 9 10 11 12 13 14 15 16 17 18 19 20 21 22 23 24 25 26 27 28 29 30 31 32 33 34 35 36 37 38 39 40 41 42 43 44 45 46 47 48 49 50
136
ASUS43 KFSD 270810
RWRFSD

WEATHER ROUNDUP FOR SE SOUTH DAKOTA/SW MINNESOTA/NW IOWA
NATIONAL WEATHER SERVICE SIOUX FALLS SD
300 AM CDT TUE SEP 27 2016

NOTE: "FAIR" INDICATES FEW OR NO CLOUDS BELOW 12,000 FEET WITH NO
SIGNIFICANT WEATHER AND OR OBSTRUCTIONS TO VISIBILITY.


SDZ038>040-050-052>070-270900-
SOUTHEAST SOUTH DAKOTA

CITY           SKY/WX    TMP DP  RH WIND       PRES   REMARKS
BROOKINGS      CLEAR     44  36  73 NW5       30.00F
CHAMBERLAIN    CLEAR     47  42  82 CALM      30.08F
HURON          CLEAR     43  35  73 W6        30.03F
MADISON        FAIR      45  34  65 W8        30.02F
MITCHELL       CLEAR     50  37  61 W10       30.05F
SIOUX FALLS    CLEAR     48  36  63 W9        30.02F
WINNER         FAIR      48  40  73 SW6       30.10F
YANKTON        CLEAR     54  39  58 W8        30.05F
$$

MNZ071-072-080-081-089-090-097-098-270900-
SOUTHWEST MINNESOTA

CITY           SKY/WX    TMP DP  RH WIND       PRES   REMARKS
FAIRMONT       CLEAR     51  36  56 W10       29.95F
JACKSON        CLEAR     52  32  46 NW9       29.97F
LUVERNE        CLEAR     43  34  70 NW5       30.02S
MARSHALL       CLEAR     47  37  68 W10       29.96F
MONTEVIDEO     CLEAR     48  37  66 NW6       29.96F
PIPESTONE      CLEAR     48  36  61 NW7       30.00F
REDWOOD FALLS  CLEAR     47  37  68 W10       29.94S
TRACY          CLEAR     50  38  65 W6        29.97F
WINDOM         CLEAR     46  37  71 W8        29.97F
WORTHINGTON    CLEAR     44  36  73 W9        30.00S
$$

IAZ001>003-012>014-020>022-031-032-NEZ013-014-SDZ071-270900-
NORTHWEST IOWA

CITY           SKY/WX    TMP DP  RH WIND       PRES   REMARKS
CHEROKEE       CLEAR     48  39  71 W3        30.02F
DENISON        CLEAR     45  43  93 CALM      30.02S
ESTHERVILLE    CLEAR     43  37  79 W7        29.97F
LE MARS        CLEAR     46  41  81 CALM      30.04F
ORANGE CITY    CLEAR     46  39  76 NW5       30.03F
SHELDON        CLEAR     45  37  76 W6        30.01S
SIOUX CITY     CLEAR     52  43  71 CALM      30.05S
SPENCER        CLEAR     44  38  79 W8        30.00S
STORM LAKE     CLEAR     48  39  71 W9        30.02F
$$

ABBREVIATIONS USED IN REMARKS
   TC - TEMPERATURE IN CELSIUS
  WCI - WIND CHILL INDEX
   HX - HEAT INDEX
  VSB - VISIBILITY





USA.gov is the U.S. government's official web portal to all federal, state and local government web resources and services.